Temp
80 89 89 82 68 68 63 68 77 72 73 80 81 79 77 79 74 66 81 84 86 84 82 78 74 75 75 75 74 75 75 76 76 76 76 76 76 76 76 75 75 76 76 76 76 75 74 73 73
85 86 84 77 63 59 63 74 69 76 78 79 78 77 77 74 78 74 76 83 85 85 82 81 72 74 74 74 74 75 75 76 76 76 76 76 76 76 76 76 75 76 76 76 75 75 74 73 72
83 85 75 69 64 60 63 74 75 77 78 77 76 78 79 75 77 78 83 84 85 85 84 80 72 74 74 74 74 75 75 75 76 75 76 76 76 75 75 75 75 76 76 75 74 74 73 72 72
82 80 77 63 61 68 71 76 79 75 75 77 79 74 77 78 79 83 83 85 84 85 85 72 72 74 74 74 74 74 75 75 75 76 76 76 76 74 74 74 75 74 74 73 74 73 72 71 71
81 77 64 62 63 70 74 78 77 75 78 77 76 74 73 75 81 82 83 85 84 84 84 78 72 73 74 74 74 74 75 75 75 75 75 75 75 74 74 74 74 74 73 73 73 72 71 70 70
71 73 60 58 64 71 73 78 78 76 78 78 75 75 73 77 78 81 84 85 85 83 80 79 70 71 72 73 73 74 74 74 74 75 75 74 73 74 73 73 73 73 72 72 72 71 70 69 69
66 65 60 63 65 69 72 78 75 75 76 76 81 73 73 73 79 82 81 78 77 78 76 76 76 73 68 70 70 72 73 73 73 73 73 72 71 72 72 72 72 72 72 71 71 69 69 68 68
71 67 61 64 63 64 75 76 77 75 75 81 82 73 72 75 79 80 76 73 76 75 74 76 76 76 77 75 66 68 69 70 70 70 68 68 68 68 69 69 70 71 71 70 69 69 68 67 66
73 60 57 61 64 66 76 70 78 78 75 76 77 75 76 78 79 76 70 69 73 75 75 76 75 78 79 78 72 65 66 66 66 67 65 66 76 75 72 67 68 69 69 69 68 67 65 64 63
63 57 60 71 72 69 73 73 73 71 73 73 74 72 76 75 76 71 68 68 68 71 74 74 78 80 80 80 76 74 70 74 76 75 74 78 77 77 73 66 64 65 65 67 66 65 64 66 72
62 57 65 67 70 70 69 70 74 70 67 73 71 74 73 73 74 72 72 72 68 73 76 78 80 80 80 79 77 72 71 73 77 76 76 78 77 74 73 69 68 66 64 68 68 67 72 72 72
57 64 64 66 69 66 65 71 69 72 72 74 74 76 73 71 72 73 73 74 71 71 75 79 80 79 79 80 78 75 73 73 77 76 77 76 75 74 71 70 67 68 72 71 71 71 69 69 70
58 62 65 67 63 64 67 64 65 68 76 78 75 72 72 72 73 74 75 77 75 71 71 78 79 79 79 78 79 79 77 77 77 76 76 76 75 74 75 71 70 69 72 72 71 69 69 68 68
57 57 61 61 59 63 60 62 66 69 75 74 73 71 73 72 72 73 74 74 75 71 70 74 78 78 79 78 78 78 78 77 77 76 76 76 76 75 75 74 69 69 71 71 71 69 68 67 66
56 50 56 59 60 59 63 56 59 69 73 72 74 74 72 73 72 70 72 73 75 73 70 70 74 77 78 77 77 77 77 76 75 75 76 75 76 76 75 73 69 69 68 69 70 68 68 66 65
49 51 45 58 60 61 60 49 65 72 70 69 72 74 75 72 72 73 73 73 76 73 70 69 70 72 75 76 75 76 77 76 75 75 75 74 76 76 72 69 69 68 67 67 67 67 65 64 64
48 43 47 51 61 60 57 53 64 70 70 69 72 74 75 76 75 74 74 72 73 74 70 69 68 68 70 75 76 75 75 74 74 74 74 74 75 75 72 70 71 68 66 66 66 66 65 62 62
43 43 47 46 55 56 53 54 61 67 67 67 70 72 74 76 77 77 74 73 71 72 71 68 68 67 67 71 74 74 74 74 74 73 74 74 75 73 71 70 70 68 65 65 66 65 65 63 60
46 44 44 50 54 49 50 52 57 64 66 65 66 69 72 74 79 80 74 72 70 70 72 70 68 67 66 65 67 69 70 71 72 73 73 75 75 73 71 70 70 68 65 65 66 65 62 60 60
42 40 41 48 52 49 47 47 55 59 61 64 64 67 70 73 76 77 76 71 69 68 69 69 70 68 66 66 66 71 72 72 72 72 72 74 73 73 71 69 68 67 65 64 64 63 59 59 58
41 39 40 41 47 49 46 45 52 58 60 62 65 67 69 70 72 75 75 71 69 68 69 70 70 68 68 66 66 69 72 71 68 68 69 70 73 72 70 70 68 67 66 63 63 62 59 54 56
36 47 45 41 38 35 49 34 48 57 59 61 62 63 66 68 71 74 75 72 70 69 70 70 70 69 68 67 65 66 67 65 69 70 70 69 71 71 70 69 68 67 66 63 62 62 60 58 53
40 46 43 42 38 36 39 34 44 55 52 57 63 65 67 69 72 73 74 75 74 71 70 70 69 70 68 66 67 67 68 69 70 69 68 68 69 70 69 68 68 66 65 65 63 61 59 60 57
47 41 41 41 36 26 36 36 40 47 53 58 62 65 67 69 71 75 76 77 75 73 72 69 68 67 68 66 66 68 67 68 67 66 67 67 68 68 68 67 67 66 65 64 64 61 60 60 59
41 32 28 25 24 26 44 37 41 52 55 58 58 63 66 69 70 73 74 75 75 71 70 69 69 66 67 66 66 67 69 68 68 67 68 67 67 65 66 67 66 65 65 64 63 61 59 58 57
34 35 29 23 25 31 43 33 42 56 58 61 62 62 63 65 69 72 74 75 75 71 70 69 67 67 68 66 65 66 68 70 70 70 69 69 68 67 67 66 66 66 65 64 63 60 59 58 58
33 31 41 29 33 27 36 44 53 50 50 54 54 56 57 61 64 68 70 72 75 73 70 69 67 67 69 68 67 65 67 68 69 70 70 70 70 68 67 66 65 65 64 63 62 60 58 57 57
35 40 29 30 22 22 33 36 37 38 40 45 45 50 53 55 58 61 65 69 74 75 72 71 70 67 68 69 69 68 68 68 68 70 69 69 70 69 67 65 64 64 63 61 60 59 59 56 56
32 31 35 37 33 24 23 30 35 34 36 36 39 46 46 50 53 55 57 60 65 74 73 70 69 68 67 69 70 68 68 69 68 68 70 70 69 69 67 65 63 62 61 61 60 59 58 56 55
40 38 37 28 26 29 27 29 35 34 35 37 37 40 44 47 49 49 49 49 52 54 59 68 68 68 68 69 70 68 68 68 67 67 68 69 68 68 67 65 64 63 62 61 59 58 58 56 54
MSLP
1013.37 1012.42 1012.05 1011.44 1010.58 1008.82 1007.33 1006.66 1006.61 1006.48 1006.74 1006.90 1007.14 1007.20 1007.27 1007.68 1008.30 1010.14 1011.59 1011.90 1012.18 1013.01 1014.19 1015.22 1015.83 1016.36 1016.82 1017.32 1017.79 1018.16 1018.28 1018.36 1018.60 1018.75 1018.92 1019.01 1019.22 1019.40 1019.57 1019.76 1019.88 1019.92 1020.01 1020.20 1020.29 1020.45 1020.65 1020.74 1020.76
1013.42 1012.42 1011.80 1010.64 1009.76 1007.75 1006.84 1006.35 1006.69 1006.54 1006.95 1007.60 1007.88 1007.98 1007.86 1008.30 1009.55 1010.88 1011.77 1012.13 1012.45 1013.12 1014.18 1014.90 1015.96 1016.46 1016.93 1017.51 1017.96 1018.34 1018.56 1018.60 1018.76 1018.95 1019.15 1019.30 1019.38 1019.62 1019.84 1020.03 1020.18 1020.27 1020.40 1020.50 1020.71 1020.85 1021.05 1021.17 1021.21
1013.35 1012.51 1011.34 1010.06 1008.96 1007.53 1006.60 1006.00 1006.43 1006.91 1007.65 1007.87 1007.99 1008.51 1008.26 1009.11 1010.28 1010.85 1011.43 1012.20 1012.70 1013.35 1014.06 1014.95 1015.99 1016.55 1017.07 1017.62 1018.04 1018.44 1018.69 1018.93 1019.06 1019.28 1019.46 1019.60 1019.74 1019.98 1020.14 1020.36 1020.47 1020.57 1020.65 1020.87 1021.10 1021.34 1021.56 1021.65 1021.63
1012.56 1011.93 1011.34 1010.09 1008.37 1007.70 1006.95 1006.32 1006.30 1007.24 1007.99 1008.33 1008.14 1008.39 1009.60 1010.54 1010.54 1010.93 1012.02 1012.33 1012.91 1013.45 1014.03 1015.51 1016.15 1016.67 1017.23 1017.76 1018.09 1018.53 1018.87 1019.10 1019.33 1019.50 1019.80 1019.99 1020.11 1020.42 1020.55 1020.71 1020.86 1020.98 1021.07 1021.38 1021.51 1021.83 1022.00 1022.09 1022.04
1012.59 1011.46 1010.26 1009.23 1008.48 1007.90 1007.57 1006.95 1007.31 1007.19 1007.23 1007.85 1008.57 1008.49 1009.71 1011.02 1011.25 1011.72 1012.21 1012.46 1012.90 1013.55 1014.20 1015.73 1016.40 1016.84 1017.47 1017.99 1018.23 1018.63 1018.97 1019.25 1019.56 1019.84 1020.15 1020.38 1020.60 1020.75 1020.90 1021.09 1021.19 1021.32 1021.54 1021.72 1021.96 1022.23 1022.48 1022.54 1022.53
1011.93 1011.43 1010.19 1008.76 1008.00 1007.70 1007.88 1007.79 1007.41 1007.50 1007.30 1007.63 1008.44 1008.85 1010.04 1011.39 1011.63 1012.00 1012.43 1012.67 1012.98 1013.73 1014.60 1015.67 1016.61 1017.13 1017.59 1018.01 1018.39 1018.78 1019.16 1019.42 1019.74 1020.07 1020.33 1020.69 1020.92 1021.03 1021.24 1021.45 1021.58 1021.72 1021.96 1022.12 1022.40 1022.63 1022.91 1023.01 1022.99
1011.94 1010.95 1009.81 1008.84 1007.89 1007.17 1007.54 1008.00 1007.77 1007.61 1007.44 1007.60 1007.98 1008.58 1010.30 1011.36 1011.72 1012.27 1012.87 1013.79 1014.14 1014.36 1015.12 1015.89 1016.46 1017.20 1017.82 1018.25 1018.52 1018.82 1019.32 1019.66 1019.92 1020.27 1020.58 1020.93 1021.21 1021.33 1021.58 1021.79 1021.96 1022.13 1022.37 1022.63 1022.86 1023.09 1023.30 1023.36 1023.42
1012.00 1011.20 1009.86 1008.97 1007.99 1007.52 1007.66 1007.85 1008.35 1008.21 1007.68 1008.08 1008.41 1008.41 1009.53 1010.97 1011.80 1012.63 1013.81 1014.39 1014.56 1015.05 1015.47 1015.94 1016.53 1017.16 1017.61 1018.26 1018.80 1019.07 1019.40 1019.81 1020.17 1020.48 1020.93 1021.27 1021.57 1021.79 1021.99 1022.17 1022.33 1022.55 1022.82 1023.15 1023.37 1023.55 1023.73 1023.87 1023.98
1012.79 1011.28 1009.66 1008.80 1008.21 1008.23 1008.02 1008.48 1008.32 1008.88 1008.82 1008.89 1009.28 1009.79 1010.27 1011.11 1011.87 1012.86 1013.99 1014.58 1014.65 1015.07 1015.51 1015.88 1016.53 1016.87 1017.37 1017.93 1018.74 1019.33 1019.67 1020.10 1020.47 1020.84 1021.22 1021.48 1021.40 1021.74 1022.15 1022.30 1022.69 1023.03 1023.35 1023.58 1023.78 1024.02 1024.25 1024.33 1024.45
1012.59 1011.30 1009.82 1009.08 1008.62 1008.42 1008.55 1008.62 1008.81 1009.02 1008.78 1009.05 1009.57 1010.57 1010.79 1011.51 1011.93 1012.48 1013.49 1013.92 1014.51 1014.85 1015.31 1015.88 1016.15 1016.41 1017.03 1017.59 1018.55 1018.98 1019.79 1020.01 1020.28 1020.67 1021.17 1020.83 1021.16 1021.49 1021.99 1022.87 1023.17 1023.55 1023.81 1024.04 1024.29 1024.48 1024.48 1024.21 1024.23
1012.34 1011.17 1010.61 1010.06 1010.02 1009.90 1009.70 1009.46 1009.46 1009.27 1009.13 1009.25 1009.67 1009.77 1011.12 1011.69 1012.10 1012.55 1013.02 1013.60 1014.41 1014.55 1014.90 1015.28 1015.57 1016.15 1016.53 1017.21 1018.18 1018.96 1019.65 1019.72 1019.94 1020.49 1020.79 1020.72 1021.14 1021.88 1022.32 1023.22 1023.69 1024.00 1024.17 1024.18 1024.40 1024.66 1024.25 1024.26 1024.38
1012.34 1011.69 1011.51 1010.89 1010.82 1011.16 1010.82 1010.42 1009.71 1009.37 1009.21 1009.91 1010.23 1010.25 1011.23 1011.62 1011.77 1012.17 1012.94 1013.24 1014.10 1014.63 1014.82 1015.02 1015.42 1016.08 1016.55 1017.01 1017.67 1018.56 1019.19 1019.50 1019.62 1020.19 1020.54 1020.85 1021.31 1021.64 1022.19 1022.85 1023.53 1023.78 1023.55 1023.68 1023.89 1024.08 1024.59 1024.85 1024.97
1012.78 1012.30 1011.88 1011.59 1012.05 1011.92 1011.64 1011.10 1010.72 1009.80 1009.27 1009.59 1010.24 1010.82 1011.15 1011.63 1012.05 1012.36 1012.82 1013.21 1014.02 1014.47 1015.18 1014.87 1015.31 1015.82 1016.33 1016.89 1017.19 1017.74 1018.60 1018.92 1019.37 1019.95 1020.46 1020.79 1021.05 1021.32 1021.56 1022.39 1023.27 1023.60 1023.38 1023.63 1023.95 1024.46 1024.84 1025.14 1025.32
1014.40 1013.70 1012.63 1012.45 1012.54 1012.32 1011.93 1011.23 1010.74 1009.74 1009.68 1009.61 1009.95 1010.46 1010.69 1011.20 1011.88 1012.32 1012.53 1012.97 1013.44 1014.57 1015.12 1015.33 1015.25 1015.62 1016.02 1016.55 1017.00 1017.37 1018.03 1018.67 1019.21 1019.73 1020.23 1020.56 1020.83 1021.21 1021.49 1021.89 1022.62 1023.14 1023.36 1023.64 1024.04 1024.54 1024.93 1025.33 1025.73
1015.21 1014.56 1013.49 1012.70 1012.56 1012.23 1012.13 1010.67 1009.97 1009.82 1009.32 1009.07 1009.04 1009.46 1010.18 1010.49 1011.24 1011.86 1012.31 1012.57 1013.10 1013.98 1015.05 1015.57 1015.59 1015.63 1015.92 1016.49 1016.93 1017.34 1017.76 1018.51 1018.96 1019.47 1020.00 1020.36 1020.53 1020.86 1021.20 1021.72 1022.44 1023.00 1023.51 1023.79 1024.15 1024.68 1025.10 1025.52 1025.98
1015.35 1014.48 1013.26 1011.74 1011.65 1011.82 1012.21 1009.34 1009.17 1008.59 1008.71 1008.50 1008.63 1008.73 1009.05 1009.98 1010.55 1010.99 1011.80 1012.30 1012.71 1013.52 1014.63 1015.47 1015.85 1016.05 1016.07 1016.36 1016.89 1017.21 1017.64 1018.23 1018.80 1019.26 1019.75 1020.18 1020.30 1020.54 1021.15 1021.77 1022.29 1023.00 1023.56 1023.90 1024.27 1024.69 1025.11 1025.62 1026.06
1015.06 1013.80 1012.87 1012.12 1011.64 1011.43 1011.50 1009.89 1008.85 1008.62 1008.21 1008.01 1007.87 1007.79 1007.96 1008.43 1009.42 1010.38 1011.02 1011.84 1012.22 1012.81 1014.05 1015.06 1015.67 1016.08 1016.43 1016.35 1016.63 1017.02 1017.34 1017.88 1018.48 1018.96 1019.36 1019.89 1020.17 1020.37 1020.91 1021.53 1022.03 1022.84 1023.43 1023.75 1024.10 1024.51 1024.90 1025.51 1026.00
1014.55 1014.27 1013.38 1012.93 1012.23 1012.13 1011.44 1010.36 1009.57 1008.91 1008.42 1008.06 1007.75 1007.63 1007.43 1007.24 1007.84 1008.98 1010.28 1011.27 1012.13 1012.51 1013.17 1014.36 1015.26 1015.90 1016.34 1016.68 1016.60 1016.93 1017.28 1017.65 1017.93 1018.45 1018.91 1019.40 1019.69 1020.15 1020.55 1021.07 1021.62 1022.46 1023.10 1023.53 1023.81 1024.25 1024.79 1025.39 1026.06
1015.73 1015.35 1014.46 1013.67 1013.49 1013.33 1011.94 1010.79 1009.81 1008.89 1008.36 1008.01 1007.86 1007.44 1007.14 1006.95 1007.22 1008.00 1009.26 1010.61 1011.67 1012.19 1012.34 1013.18 1014.16 1015.17 1015.90 1016.33 1016.54 1016.79 1016.80 1017.42 1017.74 1017.93 1018.33 1018.74 1019.14 1019.67 1020.30 1020.60 1021.21 1022.00 1022.62 1023.07 1023.54 1024.09 1024.79 1025.47 1026.08
1016.52 1015.85 1015.11 1014.27 1013.99 1013.84 1012.68 1010.75 1009.99 1009.13 1008.39 1007.90 1007.92 1007.41 1007.08 1006.92 1006.93 1007.52 1008.36 1009.96 1010.82 1011.37 1011.86 1012.51 1013.24 1014.22 1015.11 1015.75 1016.16 1016.45 1016.66 1017.02 1017.35 1017.63 1017.84 1018.18 1018.71 1019.21 1019.80 1020.32 1020.86 1021.48 1022.11 1022.68 1023.26 1023.95 1024.73 1025.45 1025.91
1016.77 1016.18 1015.47 1015.12 1014.60 1014.11 1013.06 1010.03 1008.57 1008.00 1007.91 1007.81 1007.45 1007.31 1007.11 1006.76 1006.70 1006.91 1007.45 1008.86 1009.94 1010.57 1011.10 1011.48 1011.80 1013.19 1014.23 1015.09 1015.76 1016.12 1016.23 1016.71 1017.00 1017.17 1017.51 1017.84 1018.18 1018.76 1019.34 1019.82 1020.41 1021.04 1021.37 1022.10 1022.75 1023.48 1024.18 1024.84 1025.56
1016.69 1016.14 1015.98 1015.91 1015.70 1014.17 1013.25 1010.46 1008.57 1007.37 1006.47 1006.25 1006.66 1006.94 1006.65 1006.46 1006.34 1006.30 1006.54 1007.68 1008.82 1009.69 1010.39 1011.07 1011.86 1012.46 1013.48 1014.38 1014.91 1015.02 1014.83 1015.13 1015.50 1016.27 1016.90 1017.44 1017.85 1018.10 1018.79 1019.30 1019.82 1020.37 1020.89 1021.45 1022.11 1022.71 1023.44 1024.05 1024.66
1016.89 1016.95 1016.72 1016.40 1015.83 1015.01 1013.87 1013.08 1008.26 1007.38 1006.49 1005.81 1005.64 1005.86 1006.08 1006.15 1006.02 1005.92 1006.02 1006.50 1007.58 1008.74 1009.42 1010.06 1010.83 1011.90 1012.88 1013.42 1013.82 1014.27 1014.33 1014.40 1015.07 1015.80 1016.41 1016.98 1017.36 1017.56 1018.16 1018.77 1019.19 1019.62 1020.20 1020.66 1021.32 1022.10 1022.74 1023.16 1023.72
1017.30 1017.52 1016.98 1016.65 1016.32 1014.84 1013.40 1012.65 1007.74 1007.06 1006.24 1005.96 1005.93 1005.85 1005.63 1005.46 1005.24 1005.11 1005.39 1005.62 1006.12 1007.62 1008.54 1009.29 1009.93 1010.59 1011.83 1012.82 1013.10 1013.21 1013.42 1013.83 1014.34 1014.90 1015.51 1016.03 1016.46 1016.93 1017.36 1017.96 1018.39 1018.82 1019.32 1019.98 1020.44 1021.21 1021.81 1022.29 1022.94
1017.80 1018.15 1017.00 1016.62 1015.98 1013.79 1012.21 1011.38 1007.95 1007.21 1007.46 1006.82 1006.60 1005.90 1005.55 1005.10 1005.02 1004.62 1004.46 1004.71 1005.16 1006.25 1007.42 1008.50 1009.04 1009.69 1010.66 1011.59 1012.20 1012.38 1012.68 1013.28 1013.48 1013.75 1014.35 1014.95 1015.46 1015.97 1016.23 1016.87 1017.47 1017.89 1018.34 1019.01 1019.67 1020.42 1020.95 1021.36 1021.94
1017.94 1018.13 1017.28 1016.10 1014.95 1013.13 1011.81 1009.77 1008.46 1007.66 1007.50 1007.08 1006.93 1006.71 1006.41 1005.70 1005.15 1004.48 1003.99 1004.13 1004.35 1005.59 1006.63 1007.58 1008.38 1009.05 1009.76 1010.62 1011.12 1011.68 1012.05 1012.43 1012.74 1012.93 1013.27 1013.71 1014.22 1014.64 1015.36 1015.89 1016.32 1016.89 1017.41 1018.00 1018.62 1019.42 1019.99 1020.49 1020.91
1018.40 1018.10 1017.53 1016.93 1015.61 1014.37 1011.72 1009.85 1008.55 1009.30 1009.45 1008.97 1008.90 1008.69 1007.84 1006.70 1005.99 1005.06 1004.59 1004.57 1004.14 1004.59 1005.78 1006.73 1007.50 1008.25 1008.74 1009.49 1010.20 1010.86 1011.31 1011.44 1011.56 1011.94 1012.62 1013.01 1013.34 1013.77 1014.40 1014.95 1015.40 1015.91 1016.42 1016.99 1017.68 1018.29 1018.78 1019.39 1019.93
1018.89 1018.57 1017.89 1017.39 1015.77 1013.84 1011.82 1011.29 1010.89 1011.14 1011.51 1011.47 1010.70 1010.28 1009.37 1008.56 1007.68 1006.78 1005.63 1005.09 1003.96 1004.00 1005.01 1006.14 1006.84 1007.57 1008.17 1008.46 1009.14 1009.76 1010.08 1010.48 1010.82 1011.27 1011.55 1012.09 1012.52 1012.98 1013.52 1014.14 1014.54 1015.08 1015.55 1016.18 1016.76 1017.36 1017.82 1018.34 1018.73
1018.85 1018.44 1017.81 1016.92 1016.28 1015.33 1014.15 1013.42 1014.01 1014.13 1014.33 1013.78 1013.08 1012.27 1011.17 1010.34 1009.52 1008.37 1007.56 1006.92 1005.54 1004.10 1004.63 1005.83 1006.64 1007.34 1007.88 1008.29 1008.57 1009.12 1009.49 1009.90 1010.32 1010.56 1010.66 1011.00 1011.70 1012.16 1012.62 1013.13 1013.62 1014.21 1014.57 1015.23 1015.79 1016.20 1016.58 1017.10 1017.57
1018.02 1017.50 1017.42 1017.05 1016.48 1016.33 1016.26 1015.17 1015.58 1015.98 1015.97 1015.49 1014.63 1013.63 1012.59 1011.81 1010.88 1010.03 1009.32 1009.12 1008.29 1007.36 1006.64 1005.89 1006.67 1007.15 1007.54 1007.54 1008.14 1008.40 1008.85 1009.32 1009.53 1009.69 1009.92 1010.44 1010.87 1011.41 1011.83 1012.42 1012.94 1013.29 1013.56 1013.94 1014.46 1014.97 1015.25 1015.73 1016.18
Wind_Speed
16 7 6 5 7 7 12 10 8 4 6 2 0 2 2 6 4 4 9 6 19 19 19 17 14 19 19 18 16 15 15 17 17 16 15 14 13 15 15 14 11 13 13 13 16 16 16 15 16
11 8 6 6 8 11 10 12 7 10 6 2 3 3 4 7 6 10 12 10 18 19 19 19 13 19 20 19 16 15 15 16 16 16 15 13 12 15 15 14 12 12 15 15 16 16 15 16 16
11 6 7 5 11 14 10 5 9 4 3 5 4 3 4 6 5 13 12 17 18 17 18 18 15 20 20 19 17 16 15 15 14 16 14 13 12 12 14 13 13 11 13 14 17 17 16 15 16
6 6 6 10 15 15 14 5 3 6 4 3 3 4 5 6 7 7 17 19 17 17 17 19 16 20 20 19 17 16 16 16 15 14 14 13 12 12 13 14 13 12 13 16 18 17 15 14 15
8 7 11 15 20 15 9 15 1 8 7 8 6 3 3 4 7 14 17 17 17 16 16 17 18 20 19 18 17 17 15 16 14 13 13 12 11 10 12 13 13 12 15 17 17 17 15 15 14
8 6 13 16 18 17 12 14 9 10 7 4 7 3 6 6 10 15 16 16 16 16 16 18 16 16 17 17 16 15 15 16 15 14 12 13 10 11 13 13 12 13 16 17 17 17 15 15 14
13 11 16 18 16 16 13 12 10 11 13 10 5 8 6 10 12 16 14 11 10 10 11 14 17 16 12 12 12 12 16 14 15 13 11 12 9 11 11 10 10 14 16 16 16 16 15 16 14
12 13 19 18 16 16 8 7 10 9 11 4 2 6 5 14 16 16 14 10 13 12 11 15 15 16 15 14 8 8 12 12 13 12 11 11 10 10 9 8 11 16 16 15 16 15 15 15 13
10 13 15 20 18 13 10 6 5 3 9 3 1 5 6 19 19 17 13 11 11 12 13 13 12 15 14 14 11 9 12 12 11 11 11 10 9 9 9 9 12 14 14 15 15 14 14 15 10
12 14 17 16 11 8 13 9 9 6 7 8 7 1 4 18 19 20 19 17 14 16 17 14 17 15 15 12 13 12 10 10 10 10 12 9 10 7 9 11 13 12 12 13 13 11 9 7 6
14 18 14 8 10 9 12 13 10 10 9 4 11 6 11 17 18 18 20 19 15 15 14 17 16 15 15 13 10 6 6 5 7 11 10 8 8 7 8 7 7 7 9 7 8 7 4 5 4
19 15 19 18 11 9 11 13 14 14 12 4 7 5 11 16 18 18 17 19 19 17 16 17 16 15 14 9 10 10 7 6 7 9 11 7 6 8 8 7 7 7 5 7 6 4 5 5 6
16 19 15 12 8 12 14 18 15 16 14 7 2 2 9 14 15 13 14 15 19 17 15 17 17 16 14 13 10 10 10 8 9 9 10 8 8 7 7 9 8 6 5 6 5 6 5 6 6
7 11 16 9 9 14 15 17 19 16 15 17 8 7 8 13 15 13 14 16 17 15 15 16 17 16 16 13 13 9 8 9 8 9 10 11 8 7 8 7 7 6 6 5 6 6 6 5 6
9 11 13 17 18 16 13 24 25 22 20 18 15 12 8 10 13 17 15 14 16 14 13 14 16 16 16 16 13 10 8 9 8 8 12 12 11 10 9 7 5 5 4 7 6 6 5 6 5
5 7 10 10 19 18 19 21 15 21 22 22 22 19 16 12 14 16 17 14 16 13 15 13 11 13 15 14 12 10 10 8 8 7 8 11 12 12 7 5 6 5 5 6 6 6 6 6 6
6 7 10 11 10 11 19 10 11 19 16 15 17 19 20 17 16 14 17 15 14 13 15 15 13 13 13 13 11 11 11 9 8 8 8 12 12 11 8 6 7 8 6 6 6 6 7 6 6
5 7 7 8 3 7 16 20 17 16 13 15 17 19 19 19 17 15 17 17 15 14 17 16 14 13 13 10 9 8 8 9 9 9 9 13 11 13 8 7 8 9 7 7 7 8 7 7 6
10 10 13 13 7 13 13 16 19 17 19 17 19 19 17 20 17 15 16 18 18 16 17 20 18 16 11 10 10 9 10 9 8 9 12 13 12 13 12 8 9 10 8 9 9 7 8 6 7
11 14 14 14 12 12 16 22 20 21 19 18 18 19 19 17 16 15 14 17 19 19 18 17 19 18 14 11 10 9 9 9 8 8 11 12 13 13 13 10 10 12 8 9 10 10 7 5 8
10 13 13 14 13 15 17 21 19 21 26 22 22 22 21 19 19 18 15 18 18 20 21 20 20 18 17 15 10 11 10 9 10 11 9 11 13 13 13 13 10 12 10 9 11 11 12 7 8
11 5 8 9 7 5 6 11 15 12 13 20 23 23 24 25 21 19 18 18 18 19 19 17 16 18 18 18 14 19 13 13 11 10 10 10 15 15 14 13 12 12 9 11 11 11 11 9 8
4 6 8 9 10 12 11 9 7 8 14 18 16 19 21 21 22 21 20 16 16 17 17 17 18 18 18 18 18 15 16 12 9 9 13 13 13 14 14 14 14 13 10 11 13 13 13 10 8
7 7 9 8 5 8 13 13 16 18 18 18 17 17 16 18 20 22 20 17 16 16 16 16 18 18 18 18 21 22 20 15 12 12 11 11 10 12 15 16 14 13 12 13 12 14 15 12 10
6 2 3 4 5 7 4 11 22 18 23 21 21 19 18 16 18 20 20 18 17 18 18 17 20 20 20 20 19 21 21 18 17 15 13 13 11 12 16 17 16 13 13 14 12 13 13 14 12
8 6 4 6 4 7 5 9 11 9 15 14 14 16 18 21 19 19 17 16 15 17 19 20 19 20 20 20 20 18 18 13 13 15 12 11 12 13 15 17 16 17 16 15 14 11 11 13 12
3 6 6 6 9 9 10 18 18 10 10 10 13 15 16 15 18 19 12 19 16 17 18 19 19 18 17 20 18 18 16 18 16 17 14 12 14 12 15 17 18 18 17 16 15 12 13 12 13
4 5 2 4 5 7 7 13 8 15 17 19 14 11 12 12 12 12 11 15 13 15 15 16 17 16 18 19 17 16 18 19 17 14 16 16 15 15 14 16 18 17 17 16 16 13 12 13 11
3 4 6 6 5 5 7 3 5 10 13 12 11 10 11 11 9 7 8 12 13 7 11 13 14 15 14 14 14 15 15 17 15 15 15 16 15 14 15 17 17 18 18 17 16 16 15 15 15
8 10 10 5 3 5 4 7 5 8 10 9 8 9 9 9 8 12 13 13 15 15 16 2 11 11 12 12 14 14 14 14 15 16 17 13 14 14 15 15 15 16 17 17 18 18 16 17 18
Wind_Direction
294 269 293 261 246 235 254 239 249 229 223 48 243 204 302 19 340 21 142 158 146 145 146 156 148 148 138 135 137 139 138 131 130 127 124 121 113 119 112 111 106 95 99 92 96 91 83 80 76
306 301 239 273 249 239 237 229 207 240 67 138 127 197 218 85 72 121 135 165 157 149 151 148 145 145 136 139 142 145 139 137 135 131 123 122 110 113 114 113 107 105 92 97 96 90 84 79 76
271 275 265 234 239 248 255 181 227 107 156 181 182 296 359 77 89 141 115 154 151 152 159 139 145 144 141 145 146 145 144 137 136 123 121 114 115 96 114 110 106 97 103 102 100 90 82 80 77
266 211 247 243 239 239 255 285 304 146 163 221 268 205 103 32 137 127 147 147 155 155 161 137 146 145 145 148 148 146 146 139 134 131 129 126 119 100 108 109 110 100 97 103 95 89 82 78 78
236 265 245 228 243 247 273 281 315 221 208 191 194 179 91 96 104 134 151 154 152 155 142 153 148 145 147 152 151 154 147 140 135 132 130 123 125 111 110 108 105 103 107 108 100 93 85 80 80
232 249 237 239 237 236 233 274 272 253 228 156 195 202 110 122 145 151 153 156 149 158 138 149 145 145 150 155 155 159 152 144 141 136 138 132 132 127 116 112 113 110 112 108 101 98 92 83 79
242 218 240 250 252 240 214 248 269 251 244 225 280 206 99 160 151 152 141 142 153 130 148 150 154 147 146 154 159 157 155 146 133 132 127 122 115 112 109 111 121 116 114 111 108 102 97 89 80
241 254 249 245 250 252 261 253 261 293 287 55 232 226 183 163 155 146 146 154 156 151 155 156 157 161 161 164 147 143 143 131 133 124 116 116 103 100 105 118 122 120 118 118 115 106 100 91 76
245 247 239 240 237 240 243 243 216 359 285 263 229 330 22 144 158 147 158 160 161 160 158 161 159 167 165 165 158 135 130 123 117 121 122 144 139 155 159 105 122 113 120 121 119 113 108 96 79
222 224 241 256 266 237 250 234 282 307 255 225 224 100 153 156 172 162 175 171 172 173 166 167 171 170 168 163 161 161 145 154 161 155 161 175 157 140 101 100 94 99 107 117 120 120 140 161 120
217 243 240 242 310 275 271 264 271 255 258 305 338 146 160 177 184 176 186 182 176 176 174 176 175 174 175 154 176 142 165 167 158 158 179 157 133 130 131 131 123 124 128 130 139 155 140 99 98
238 234 246 271 237 239 252 263 261 253 251 89 16 6 183 191 194 192 199 185 180 179 192 181 177 178 181 166 185 155 170 182 167 169 180 165 148 178 144 143 139 159 175 150 166 135 116 108 97
244 247 255 256 252 277 270 262 265 262 259 215 19 223 207 210 209 205 199 202 186 190 190 192 180 180 181 183 186 171 179 190 181 171 182 174 172 174 171 147 158 171 172 162 147 134 136 120 110
352 290 273 252 267 258 253 257 248 246 245 253 204 229 218 210 216 222 209 206 203 195 187 203 187 185 184 186 187 180 183 178 181 178 181 184 177 177 176 166 152 163 174 169 151 149 140 125 117
281 278 267 251 246 241 247 256 247 251 254 254 242 216 219 218 209 221 212 212 212 183 189 194 199 191 188 188 186 185 183 180 180 179 183 188 188 184 173 174 151 161 158 170 152 150 142 130 124
266 241 253 245 232 236 229 255 263 228 235 240 241 241 231 214 212 207 212 214 210 180 193 190 191 204 196 195 178 192 185 187 180 182 183 190 195 184 165 171 160 151 150 167 168 164 157 153 150
207 271 235 276 259 235 212 264 248 250 245 248 248 247 238 226 209 215 211 204 206 190 183 190 192 191 203 200 183 197 188 188 184 184 185 188 196 192 180 172 174 154 164 171 177 174 169 160 155
303 229 248 264 40 291 263 261 265 265 252 260 254 251 253 243 229 208 209 204 202 206 182 187 188 195 188 213 198 199 194 190 187 186 188 192 196 197 187 179 171 172 168 180 185 178 173 165 154
288 273 274 274 272 300 272 272 273 265 253 249 256 258 250 243 233 225 194 202 199 207 195 188 187 193 187 194 205 197 196 193 196 191 192 196 198 192 202 190 172 183 176 184 182 175 173 161 154
269 269 274 280 275 269 284 280 270 264 258 254 244 259 255 246 245 232 190 200 198 201 203 192 195 192 190 193 195 208 202 197 199 197 193 202 196 191 200 192 185 188 176 180 184 171 168 167 171
260 264 272 275 306 285 278 280 262 247 247 249 248 248 252 256 245 240 212 200 203 203 204 205 194 191 196 196 193 207 198 201 200 200 201 198 201 198 199 193 187 191 185 181 182 177 181 168 189
292 325 294 282 286 280 33 292 296 298 272 238 235 239 246 245 245 239 234 204 206 209 204 206 201 194 196 193 199 207 202 197 203 202 192 196 205 200 193 197 192 190 190 184 189 183 188 180 185
261 328 295 288 278 298 251 262 272 255 265 265 254 238 240 253 251 245 231 227 204 209 207 194 200 199 197 196 202 209 210 205 194 195 196 201 199 203 194 199 200 192 196 195 188 188 193 195 182
278 315 272 272 267 248 238 221 270 257 267 266 267 278 275 251 257 242 238 227 202 207 205 195 194 196 197 204 205 213 211 204 194 195 200 199 195 197 200 200 203 197 196 199 195 193 195 199 197
251 261 278 219 202 252 281 218 250 300 296 292 297 283 275 284 253 256 236 230 208 200 199 201 198 199 202 204 208 214 214 210 210 196 200 193 197 198 204 198 201 200 198 199 195 196 197 199 200
198 203 259 289 288 296 288 240 247 297 333 301 291 289 293 274 271 261 251 239 222 200 199 197 202 207 201 205 210 212 215 214 216 210 204 203 203 203 200 199 200 203 202 200 197 197 199 201 207
60 210 292 284 255 270 247 269 269 42 0 343 328 309 300 284 272 276 269 281 239 197 203 202 199 209 205 209 210 209 212 216 216 215 210 210 209 208 201 200 201 203 203 202 199 201 201 200 205
224 338 181 195 272 274 273 288 301 344 329 323 316 302 312 319 304 292 282 269 258 207 197 204 205 203 209 211 209 211 211 216 222 219 215 215 217 208 200 201 205 205 204 202 202 205 205 202 205
165 206 236 293 266 293 311 289 352 323 334 326 318 321 344 339 328 342 356 345 333 253 197 193 205 207 207 209 214 215 217 219 219 221 223 220 218 212 204 205 203 206 206 205 205 211 207 207 210
271 253 218 242 222 221 271 286 347 354 317 313 317 335 357 357 19 36 37 27 21 21 14 274 200 213 215 208 219 218 219 219 217 220 226 224 220 219 215 210 210 212 211 207 206 211 211 210 212